GFSSE_prec_pwat_102.txt.gz
Precipitable_Water
0.74 0.96 1.07 1.16 1.22 1.18 1.11 1.06 1.04 1.00 1.00 1.05 1.11 1.14 1.19 1.22 1.22 1.19 1.19 1.23 1.29 1.38 1.42 1.39 1.36 1.37 1.38 1.39 1.44 1.48 1.58 1.67 1.69 1.69 1.80 1.73 1.66 1.65 1.63 1.62 1.63 1.60 1.61
0.85 1.04 1.09 1.16 1.21 1.18 1.14 1.09 1.03 1.02 0.99 0.96 1.00 1.06 1.10 1.14 1.17 1.18 1.19 1.23 1.28 1.37 1.41 1.35 1.34 1.38 1.41 1.44 1.50 1.58 1.65 1.70 1.73 1.80 1.78 1.73 1.75 1.66 1.63 1.64 1.55 1.59 1.63
0.84 1.07 1.13 1.17 1.21 1.17 1.12 1.06 1.02 1.02 0.99 0.94 0.97 1.02 1.09 1.13 1.18 1.21 1.20 1.24 1.30 1.35 1.37 1.31 1.35 1.42 1.43 1.48 1.52 1.58 1.59 1.62 1.70 1.74 1.76 1.66 1.67 1.65 1.67 1.57 1.56 1.62 1.66
0.90 1.04 1.14 1.21 1.25 1.25 1.15 1.06 1.04 1.07 1.04 1.00 0.98 1.02 1.08 1.14 1.22 1.22 1.22 1.24 1.31 1.36 1.33 1.35 1.38 1.40 1.43 1.49 1.56 1.56 1.57 1.57 1.63 1.65 1.64 1.62 1.62 1.62 1.63 1.58 1.59 1.64 1.63
0.92 1.04 1.13 1.22 1.25 1.22 1.16 1.11 1.11 1.12 1.09 1.04 1.02 1.04 1.09 1.15 1.21 1.22 1.24 1.28 1.34 1.36 1.35 1.38 1.40 1.38 1.43 1.53 1.56 1.53 1.52 1.54 1.55 1.56 1.58 1.57 1.61 1.61 1.58 1.59 1.62 1.63 1.62
0.95 1.06 1.11 1.18 1.21 1.15 1.14 1.12 1.10 1.10 1.07 1.06 1.07 1.07 1.10 1.15 1.18 1.22 1.24 1.27 1.31 1.36 1.39 1.42 1.39 1.37 1.43 1.50 1.49 1.45 1.46 1.49 1.48 1.53 1.55 1.53 1.57 1.60 1.60 1.60 1.61 1.60 1.58
0.91 1.02 1.10 1.13 1.12 1.14 1.09 1.10 1.11 1.11 1.10 1.10 1.12 1.12 1.13 1.15 1.19 1.22 1.26 1.29 1.32 1.35 1.42 1.43 1.38 1.39 1.44 1.43 1.38 1.39 1.42 1.42 1.45 1.50 1.51 1.50 1.54 1.59 1.64 1.64 1.62 1.57 1.55
0.92 1.00 1.04 1.08 1.07 1.05 1.04 1.04 1.07 1.11 1.12 1.11 1.14 1.15 1.15 1.16 1.20 1.22 1.26 1.28 1.31 1.34 1.41 1.45 1.42 1.44 1.41 1.38 1.38 1.44 1.42 1.43 1.45 1.44 1.47 1.42 1.48 1.62 1.64 1.62 1.62 1.55 1.53
1.00 1.03 1.09 1.08 1.04 0.98 0.95 0.97 1.01 1.06 1.09 1.12 1.14 1.15 1.16 1.17 1.19 1.20 1.24 1.26 1.27 1.30 1.35 1.41 1.42 1.41 1.39 1.40 1.45 1.39 1.40 1.32 1.38 1.34 1.43 1.42 1.47 1.58 1.63 1.62 1.59 1.56 1.53
1.00 1.06 1.08 1.05 1.04 1.01 0.99 0.97 0.96 1.01 1.04 1.11 1.14 1.15 1.15 1.18 1.19 1.19 1.20 1.23 1.24 1.25 1.32 1.37 1.40 1.39 1.40 1.41 1.41 1.40 1.40 1.44 1.48 1.55 1.44 1.41 1.50 1.66 1.66 1.61 1.61 1.58 1.48
0.97 1.02 1.07 1.03 1.01 1.03 1.00 1.00 1.01 1.00 1.03 1.06 1.11 1.13 1.17 1.18 1.20 1.19 1.17 1.20 1.22 1.25 1.32 1.37 1.40 1.43 1.43 1.46 1.48 1.40 1.45 1.48 1.47 1.50 1.49 1.44 1.51 1.72 1.73 1.64 1.62 1.54 1.47
0.88 0.95 1.01 1.00 0.98 1.03 1.05 1.03 1.03 1.04 1.03 1.05 1.09 1.13 1.17 1.18 1.20 1.19 1.18 1.20 1.22 1.25 1.31 1.36 1.44 1.46 1.52 1.48 1.47 1.48 1.46 1.44 1.48 1.52 1.52 1.51 1.55 1.72 1.73 1.74 1.69 1.57 1.48
1.04 1.02 1.02 1.06 1.04 1.03 1.02 1.03 1.02 1.04 1.02 1.04 1.06 1.11 1.15 1.18 1.20 1.18 1.16 1.19 1.20 1.23 1.25 1.32 1.35 1.40 1.42 1.42 1.45 1.47 1.47 1.45 1.45 1.56 1.57 1.56 1.60 1.72 1.72 1.82 1.69 1.57 1.51
1.15 1.12 1.14 1.12 1.10 1.08 1.08 1.03 1.02 1.03 1.03 1.00 1.03 1.05 1.06 1.12 1.13 1.11 1.11 1.13 1.15 1.18 1.20 1.27 1.31 1.34 1.40 1.44 1.48 1.49 1.52 1.50 1.50 1.61 1.58 1.56 1.58 1.69 1.69 1.74 1.64 1.59 1.50
1.22 1.35 1.24 1.26 1.20 1.17 1.12 1.10 1.04 1.03 1.04 1.05 1.02 1.05 1.06 1.08 1.10 1.10 1.09 1.13 1.14 1.17 1.17 1.21 1.24 1.28 1.32 1.42 1.53 1.49 1.48 1.48 1.51 1.64 1.64 1.58 1.60 1.65 1.72 1.67 1.63 1.61 1.55
0.50 0.72 1.35 1.36 1.34 1.28 1.19 1.15 1.11 1.10 1.07 1.04 1.05 1.05 1.06 1.09 1.11 1.10 1.08 1.11 1.13 1.14 1.17 1.21 1.23 1.24 1.34 1.46 1.48 1.49 1.45 1.57 1.55 1.60 1.61 1.64 1.57 1.57 1.71 1.71 1.66 1.61 1.54
0.41 0.47 0.65 0.91 1.14 1.29 1.24 1.17 1.15 1.12 1.12 1.12 1.08 1.10 1.09 1.10 1.11 1.11 1.08 1.09 1.13 1.16 1.17 1.20 1.22 1.27 1.32 1.46 1.45 1.47 1.52 1.51 1.47 1.54 1.58 1.57 1.60 1.63 1.67 1.63 1.64 1.54 1.46
0.41 0.42 0.53 0.69 0.79 1.00 1.20 1.25 1.20 1.15 1.13 1.15 1.23 1.14 1.12 1.10 1.14 1.13 1.08 1.07 1.15 1.16 1.15 1.15 1.16 1.18 1.27 1.37 1.41 1.42 1.47 1.50 1.46 1.51 1.53 1.58 1.65 1.64 1.60 1.59 1.46 1.41 1.41
0.41 0.43 0.45 0.60 0.71 0.79 0.93 1.13 1.24 1.25 1.22 1.19 1.34 1.18 1.10 1.12 1.15 1.14 1.09 1.09 1.15 1.15 1.10 1.10 1.10 1.15 1.16 1.30 1.32 1.37 1.44 1.50 1.46 1.47 1.47 1.52 1.61 1.61 1.56 1.57 1.44 1.35 1.24
0.38 0.40 0.41 0.46 0.65 0.77 0.90 1.03 1.20 1.25 1.19 1.20 1.22 1.34 1.16 1.15 1.17 1.14 1.13 1.11 1.13 1.12 1.06 1.05 1.04 1.11 1.14 1.21 1.31 1.34 1.44 1.52 1.51 1.47 1.47 1.51 1.53 1.59 1.60 1.50 1.40 1.32 1.13
0.43 0.39 0.39 0.41 0.55 0.74 0.84 0.89 0.98 1.10 1.09 1.09 1.18 1.36 1.33 1.18 1.19 1.18 1.15 1.14 1.13 1.09 1.06 1.03 1.04 1.02 1.09 1.22 1.22 1.25 1.38 1.48 1.49 1.50 1.50 1.49 1.51 1.54 1.60 1.50 1.39 1.25 1.09
0.54 0.53 0.44 0.42 0.52 0.69 0.80 0.87 0.86 0.93 1.06 1.01 1.14 1.29 1.42 1.34 1.22 1.24 1.21 1.17 1.13 1.10 1.08 1.03 1.00 0.95 1.04 1.15 1.06 1.07 1.02 1.20 1.37 1.42 1.42 1.42 1.47 1.52 1.55 1.48 1.37 1.26 1.05
0.57 0.57 0.56 0.56 0.55 0.69 0.77 0.87 0.92 0.97 1.07 1.07 1.07 1.19 1.34 1.43 1.41 1.38 1.30 1.23 1.19 1.13 1.05 1.06 1.00 0.97 0.92 1.03 1.11 0.97 0.86 0.83 1.07 1.28 1.22 1.32 1.42 1.48 1.54 1.46 1.37 1.24 1.04
0.67 0.68 0.63 0.63 0.64 0.73 0.80 0.83 0.81 0.77 0.72 0.85 0.93 1.08 1.19 1.35 1.46 1.48 1.38 1.29 1.22 1.11 1.08 1.08 1.01 0.99 1.02 0.92 1.05 1.10 1.06 1.02 0.88 0.84 1.07 1.21 1.41 1.44 1.49 1.44 1.35 1.25 1.07
0.72 0.73 0.76 0.71 0.69 0.71 0.87 0.82 0.76 0.76 0.80 0.83 0.87 0.93 1.17 1.24 1.42 1.44 1.42 1.32 1.19 1.08 1.12 1.13 1.00 0.97 1.06 1.02 1.00 1.03 1.08 1.07 1.06 0.88 0.78 0.97 1.29 1.39 1.47 1.41 1.37 1.27 1.02
0.70 0.77 0.79 0.81 0.78 0.77 0.94 0.87 0.81 0.74 0.80 0.85 0.87 0.89 1.05 1.20 1.33 1.37 1.34 1.28 1.17 1.09 1.11 1.16 1.04 1.00 1.02 1.10 1.12 1.12 1.10 1.05 1.03 0.98 0.85 0.96 1.07 1.24 1.40 1.40 1.35 1.27 1.03

GFSSE_prec_pwat_105.txt.gz
Precipitable_Water
0.80 0.99 1.06 1.08 1.12 1.13 1.15 1.18 1.16 1.16 1.15 1.15 1.14 1.19 1.24 1.26 1.24 1.22 1.20 1.21 1.23 1.34 1.36 1.36 1.35 1.37 1.39 1.39 1.39 1.45 1.49 1.58 1.64 1.68 1.80 1.79 1.68 1.64 1.70 1.70 1.64 1.65 1.65
0.89 1.05 1.04 1.10 1.14 1.15 1.18 1.19 1.19 1.18 1.18 1.20 1.18 1.17 1.20 1.20 1.18 1.15 1.18 1.18 1.26 1.32 1.35 1.33 1.33 1.34 1.36 1.35 1.37 1.43 1.53 1.64 1.66 1.70 1.74 1.74 1.68 1.74 1.72 1.68 1.68 1.68 1.63
0.94 1.06 1.08 1.15 1.16 1.19 1.16 1.15 1.18 1.18 1.19 1.23 1.22 1.18 1.16 1.15 1.12 1.14 1.18 1.20 1.25 1.32 1.34 1.30 1.29 1.34 1.37 1.39 1.46 1.51 1.58 1.64 1.70 1.73 1.77 1.57 1.64 1.73 1.71 1.65 1.67 1.64 1.66
0.99 1.08 1.10 1.16 1.17 1.19 1.18 1.16 1.13 1.13 1.16 1.20 1.19 1.15 1.13 1.13 1.12 1.15 1.19 1.22 1.24 1.29 1.30 1.27 1.30 1.35 1.37 1.43 1.48 1.53 1.56 1.60 1.63 1.65 1.65 1.61 1.62 1.63 1.62 1.62 1.66 1.68 1.70
0.96 1.06 1.12 1.18 1.20 1.20 1.19 1.16 1.12 1.10 1.10 1.13 1.16 1.17 1.14 1.13 1.15 1.19 1.21 1.23 1.23 1.28 1.28 1.28 1.32 1.36 1.37 1.43 1.50 1.52 1.53 1.58 1.59 1.63 1.55 1.57 1.60 1.68 1.64 1.64 1.67 1.70 1.68
0.94 1.04 1.12 1.15 1.18 1.17 1.14 1.13 1.11 1.08 1.07 1.11 1.16 1.19 1.19 1.18 1.22 1.21 1.24 1.26 1.28 1.29 1.31 1.31 1.34 1.34 1.37 1.46 1.51 1.50 1.49 1.49 1.52 1.53 1.51 1.54 1.60 1.61 1.61 1.64 1.64 1.65 1.66
0.94 1.05 1.12 1.13 1.14 1.13 1.14 1.11 1.10 1.07 1.07 1.10 1.15 1.19 1.22 1.24 1.24 1.23 1.26 1.28 1.28 1.28 1.33 1.35 1.35 1.33 1.37 1.46 1.46 1.42 1.39 1.42 1.45 1.44 1.50 1.52 1.58 1.59 1.62 1.62 1.63 1.63 1.62
1.00 1.06 1.11 1.16 1.16 1.17 1.15 1.11 1.08 1.06 1.06 1.07 1.12 1.17 1.20 1.23 1.23 1.23 1.26 1.27 1.26 1.27 1.35 1.37 1.37 1.35 1.40 1.44 1.40 1.40 1.45 1.44 1.45 1.44 1.46 1.51 1.56 1.56 1.62 1.64 1.63 1.66 1.58
1.18 1.12 1.14 1.20 1.23 1.18 1.13 1.10 1.12 1.09 1.07 1.06 1.10 1.15 1.18 1.20 1.22 1.24 1.26 1.27 1.30 1.29 1.34 1.41 1.37 1.37 1.42 1.41 1.36 1.37 1.40 1.42 1.45 1.44 1.41 1.47 1.56 1.53 1.62 1.64 1.62 1.60 1.55
1.26 1.19 1.14 1.21 1.22 1.19 1.18 1.17 1.14 1.09 1.08 1.10 1.09 1.13 1.18 1.20 1.22 1.25 1.26 1.27 1.30 1.28 1.31 1.36 1.36 1.39 1.41 1.38 1.38 1.42 1.41 1.37 1.41 1.48 1.50 1.46 1.52 1.52 1.64 1.62 1.60 1.57 1.56
1.27 1.17 1.17 1.18 1.18 1.18 1.18 1.17 1.17 1.16 1.12 1.12 1.14 1.13 1.16 1.19 1.21 1.24 1.24 1.27 1.27 1.28 1.31 1.33 1.38 1.38 1.39 1.42 1.45 1.46 1.45 1.40 1.46 1.49 1.52 1.53 1.53 1.50 1.72 1.68 1.59 1.57 1.55
1.13 1.10 1.20 1.22 1.24 1.19 1.18 1.18 1.18 1.17 1.15 1.17 1.16 1.15 1.15 1.16 1.20 1.22 1.26 1.27 1.26 1.27 1.31 1.38 1.44 1.44 1.43 1.45 1.49 1.48 1.44 1.46 1.48 1.45 1.47 1.48 1.54 1.52 1.70 1.76 1.64 1.60 1.52
1.13 1.08 1.17 1.20 1.21 1.19 1.16 1.18 1.15 1.11 1.09 1.12 1.16 1.17 1.16 1.16 1.19 1.21 1.24 1.26 1.28 1.26 1.27 1.32 1.38 1.38 1.40 1.43 1.42 1.48 1.43 1.48 1.51 1.49 1.48 1.58 1.51 1.57 1.72 1.79 1.73 1.62 1.52
1.32 1.13 1.16 1.21 1.16 1.17 1.18 1.15 1.10 1.09 1.08 1.06 1.09 1.15 1.17 1.12 1.12 1.13 1.15 1.19 1.22 1.23 1.22 1.29 1.33 1.38 1.40 1.42 1.44 1.43 1.50 1.49 1.59 1.55 1.51 1.63 1.65 1.63 1.75 1.78 1.77 1.66 1.54
0.85 1.19 1.29 1.22 1.17 1.21 1.14 1.21 1.13 1.09 1.04 1.10 1.11 1.10 1.13 1.13 1.08 1.11 1.10 1.17 1.19 1.22 1.21 1.22 1.29 1.31 1.32 1.39 1.44 1.44 1.49 1.55 1.56 1.49 1.54 1.61 1.68 1.70 1.69 1.80 1.61 1.61 1.60
0.54 0.76 1.03 1.15 1.28 1.32 1.26 1.23 1.19 1.17 1.14 1.09 1.12 1.11 1.11 1.11 1.10 1.07 1.08 1.10 1.17 1.19 1.22 1.21 1.22 1.27 1.30 1.37 1.37 1.44 1.51 1.55 1.53 1.51 1.52 1.55 1.57 1.76 1.71 1.82 1.74 1.67 1.63
0.45 0.52 0.69 0.75 0.95 1.17 1.27 1.38 1.31 1.24 1.23 1.18 1.16 1.17 1.11 1.09 1.09 1.12 1.10 1.06 1.12 1.19 1.22 1.22 1.19 1.25 1.26 1.29 1.31 1.42 1.51 1.53 1.50 1.48 1.49 1.50 1.52 1.59 1.73 1.86 1.78 1.71 1.67
0.43 0.43 0.46 0.62 0.73 0.89 1.09 1.24 1.25 1.30 1.23 1.17 1.18 1.21 1.18 1.17 1.14 1.13 1.12 1.09 1.10 1.16 1.20 1.17 1.10 1.12 1.17 1.23 1.26 1.35 1.49 1.51 1.50 1.53 1.51 1.53 1.57 1.60 1.62 1.72 1.71 1.66 1.67
0.47 0.45 0.44 0.47 0.63 0.72 0.83 1.01 1.11 1.22 1.29 1.18 1.22 1.22 1.24 1.23 1.19 1.14 1.15 1.12 1.13 1.09 1.13 1.14 1.05 1.08 1.08 1.13 1.19 1.32 1.45 1.45 1.48 1.52 1.48 1.48 1.57 1.55 1.60 1.79 1.56 1.61 1.55
0.59 0.58 0.50 0.46 0.49 0.66 0.76 0.86 0.95 1.05 1.13 1.27 1.24 1.21 1.28 1.30 1.26 1.20 1.18 1.14 1.14 1.08 1.09 1.12 1.03 1.04 1.07 1.12 1.13 1.19 1.34 1.44 1.46 1.47 1.47 1.45 1.48 1.53 1.61 1.69 1.64 1.59 1.46
0.61 0.60 0.60 0.55 0.47 0.51 0.72 0.75 0.80 0.79 0.90 1.08 1.23 1.26 1.26 1.29 1.35 1.22 1.17 1.15 1.13 1.06 1.07 1.09 1.07 0.96 0.97 1.13 1.10 1.13 1.21 1.36 1.42 1.48 1.48 1.46 1.48 1.51 1.51 1.57 1.65 1.59 1.47
0.59 0.60 0.61 0.60 0.58 0.52 0.65 0.76 0.76 0.80 0.90 0.93 1.16 1.24 1.23 1.22 1.35 1.33 1.17 1.12 1.12 1.09 1.11 1.09 1.06 0.97 0.93 1.08 0.96 1.00 0.88 1.05 1.27 1.40 1.46 1.45 1.46 1.49 1.49 1.53 1.61 1.57 1.46
0.57 0.60 0.61 0.63 0.64 0.62 0.62 0.80 0.87 0.93 1.00 0.96 1.05 1.12 1.19 1.18 1.23 1.41 1.30 1.15 1.14 1.18 1.13 1.11 1.07 1.06 0.84 1.00 1.09 0.93 0.80 0.79 0.93 1.22 1.30 1.40 1.41 1.37 1.41 1.49 1.54 1.57 1.46
0.61 0.65 0.65 0.66 0.66 0.68 0.68 0.73 0.82 0.76 0.75 0.84 0.88 0.95 1.05 1.13 1.19 1.30 1.39 1.28 1.20 1.25 1.20 1.16 1.12 1.09 1.03 0.87 1.02 1.06 1.03 0.97 0.81 0.80 1.11 1.17 1.33 1.24 1.29 1.42 1.50 1.53 1.45
0.61 0.63 0.67 0.69 0.70 0.72 0.71 0.69 0.83 0.84 0.83 0.86 0.92 0.91 0.99 1.02 1.13 1.27 1.37 1.44 1.39 1.32 1.27 1.23 1.13 1.09 1.11 0.97 0.97 1.00 0.96 0.98 1.00 0.89 0.81 0.95 1.08 1.15 1.23 1.41 1.48 1.52 1.46
0.60 0.62 0.65 0.67 0.71 0.76 0.76 0.75 0.75 0.81 0.85 0.87 0.87 0.84 0.88 0.93 1.07 1.21 1.34 1.33 1.48 1.39 1.36 1.24 1.15 1.11 1.12 1.03 1.02 1.02 0.98 0.95 0.94 0.95 0.95 1.00 0.96 1.00 1.15 1.38 1.49 1.50 1.45

GFSSE_prec_pwat_108.txt.gz
Precipitable_Water
0.83 1.06 1.09 1.10 1.13 1.20 1.21 1.21 1.22 1.25 1.26 1.26 1.28 1.28 1.28 1.27 1.23 1.20 1.21 1.18 1.20 1.24 1.28 1.34 1.36 1.36 1.33 1.31 1.31 1.37 1.40 1.52 1.59 1.64 1.75 1.73 1.61 1.60 1.60 1.65 1.66 1.76 1.73
0.96 1.11 1.10 1.11 1.14 1.18 1.22 1.24 1.25 1.28 1.28 1.28 1.29 1.29 1.31 1.31 1.23 1.22 1.20 1.21 1.23 1.31 1.34 1.34 1.33 1.37 1.38 1.40 1.38 1.43 1.45 1.56 1.60 1.66 1.72 1.63 1.66 1.64 1.62 1.64 1.74 1.70 1.70
1.05 1.12 1.13 1.12 1.13 1.15 1.21 1.24 1.26 1.29 1.26 1.26 1.27 1.29 1.32 1.31 1.27 1.21 1.21 1.19 1.27 1.32 1.32 1.30 1.30 1.33 1.35 1.36 1.37 1.43 1.49 1.59 1.65 1.74 1.71 1.67 1.66 1.68 1.60 1.61 1.66 1.62 1.69
1.14 1.12 1.11 1.10 1.11 1.12 1.15 1.19 1.21 1.23 1.24 1.25 1.26 1.30 1.32 1.29 1.25 1.21 1.21 1.21 1.28 1.34 1.32 1.28 1.27 1.31 1.33 1.36 1.40 1.45 1.53 1.58 1.63 1.67 1.65 1.58 1.60 1.61 1.59 1.65 1.66 1.67 1.69
1.19 1.15 1.10 1.06 1.10 1.12 1.12 1.13 1.18 1.19 1.20 1.22 1.24 1.28 1.29 1.27 1.22 1.22 1.23 1.26 1.30 1.32 1.31 1.27 1.30 1.32 1.33 1.36 1.43 1.50 1.54 1.57 1.61 1.59 1.68 1.59 1.60 1.62 1.62 1.58 1.59 1.67 1.69
1.20 1.16 1.14 1.09 1.10 1.11 1.10 1.09 1.13 1.13 1.17 1.19 1.18 1.22 1.25 1.26 1.24 1.24 1.24 1.26 1.28 1.29 1.32 1.29 1.31 1.35 1.33 1.38 1.45 1.49 1.52 1.54 1.55 1.59 1.58 1.59 1.61 1.61 1.55 1.60 1.65 1.66 1.70
1.18 1.18 1.19 1.15 1.14 1.13 1.11 1.11 1.07 1.07 1.11 1.13 1.14 1.16 1.21 1.22 1.23 1.26 1.27 1.28 1.30 1.32 1.31 1.33 1.34 1.35 1.37 1.41 1.47 1.48 1.45 1.42 1.43 1.52 1.51 1.51 1.63 1.57 1.59 1.59 1.63 1.64 1.64
1.14 1.25 1.27 1.27 1.23 1.20 1.16 1.13 1.09 1.10 1.12 1.12 1.16 1.18 1.20 1.21 1.24 1.28 1.29 1.30 1.31 1.36 1.32 1.36 1.36 1.38 1.42 1.43 1.46 1.43 1.39 1.43 1.45 1.48 1.47 1.50 1.55 1.57 1.62 1.62 1.61 1.64 1.64
1.20 1.24 1.32 1.33 1.31 1.26 1.23 1.16 1.10 1.10 1.13 1.16 1.15 1.16 1.21 1.27 1.27 1.26 1.28 1.29 1.30 1.30 1.32 1.36 1.43 1.36 1.41 1.43 1.44 1.37 1.36 1.41 1.48 1.50 1.48 1.55 1.50 1.54 1.65 1.64 1.63 1.67 1.67
1.24 1.22 1.29 1.37 1.36 1.34 1.30 1.21 1.15 1.15 1.15 1.15 1.16 1.17 1.20 1.22 1.24 1.24 1.24 1.29 1.33 1.31 1.31 1.35 1.36 1.36 1.41 1.45 1.44 1.38 1.39 1.43 1.45 1.46 1.51 1.52 1.51 1.53 1.64 1.67 1.66 1.66 1.63
1.28 1.26 1.32 1.29 1.34 1.38 1.33 1.26 1.22 1.22 1.20 1.21 1.21 1.18 1.22 1.25 1.26 1.26 1.24 1.26 1.27 1.30 1.31 1.32 1.36 1.36 1.41 1.46 1.45 1.40 1.42 1.44 1.44 1.45 1.57 1.58 1.52 1.55 1.66 1.64 1.70 1.66 1.63
1.22 1.26 1.32 1.28 1.31 1.36 1.34 1.32 1.28 1.28 1.26 1.22 1.24 1.26 1.22 1.25 1.30 1.30 1.29 1.29 1.29 1.30 1.29 1.32 1.38 1.39 1.41 1.45 1.44 1.44 1.43 1.44 1.41 1.45 1.55 1.56 1.51 1.57 1.65 1.70 1.70 1.65 1.62
1.27 1.30 1.31 1.25 1.30 1.34 1.31 1.30 1.28 1.29 1.29 1.28 1.22 1.24 1.26 1.25 1.27 1.28 1.34 1.33 1.33 1.30 1.28 1.29 1.32 1.35 1.39 1.38 1.55 1.40 1.44 1.47 1.49 1.58 1.58 1.57 1.52 1.55 1.62 1.71 1.73 1.69 1.63
1.29 1.34 1.39 1.25 1.27 1.30 1.30 1.27 1.24 1.23 1.25 1.22 1.23 1.25 1.20 1.25 1.25 1.22 1.23 1.29 1.30 1.31 1.24 1.27 1.26 1.29 1.31 1.40 1.49 1.46 1.44 1.50 1.46 1.56 1.56 1.54 1.56 1.60 1.66 1.76 1.71 1.67 1.65
0.75 1.11 1.41 1.36 1.22 1.22 1.20 1.24 1.22 1.19 1.20 1.17 1.20 1.25 1.26 1.18 1.16 1.22 1.22 1.24 1.26 1.31 1.29 1.24 1.24 1.25 1.30 1.37 1.45 1.46 1.47 1.47 1.55 1.55 1.55 1.57 1.50 1.56 1.62 1.78 1.88 1.76 1.67
0.58 0.64 0.95 1.24 1.31 1.28 1.20 1.12 1.19 1.22 1.27 1.21 1.15 1.20 1.28 1.26 1.19 1.14 1.19 1.22 1.20 1.25 1.29 1.27 1.22 1.21 1.23 1.33 1.38 1.41 1.41 1.51 1.48 1.55 1.54 1.50 1.47 1.49 1.57 1.76 1.88 1.78 1.69
0.49 0.56 0.65 0.89 1.24 1.25 1.34 1.28 1.24 1.22 1.29 1.26 1.27 1.23 1.25 1.25 1.22 1.16 1.14 1.16 1.19 1.25 1.26 1.24 1.27 1.25 1.20 1.27 1.26 1.34 1.38 1.46 1.45 1.51 1.51 1.48 1.50 1.49 1.49 1.57 1.77 1.53 1.66
0.53 0.53 0.56 0.64 0.75 1.00 1.18 1.33 1.35 1.31 1.34 1.37 1.29 1.29 1.27 1.25 1.27 1.21 1.13 1.12 1.22 1.26 1.25 1.15 1.18 1.16 1.09 1.11 1.15 1.24 1.29 1.40 1.46 1.51 1.49 1.46 1.53 1.52 1.55 1.52 1.58 1.65 1.68
0.62 0.63 0.63 0.61 0.62 0.76 0.98 1.12 1.19 1.26 1.30 1.35 1.33 1.26 1.19 1.21 1.24 1.22 1.17 1.17 1.20 1.20 1.22 1.15 1.10 1.13 0.99 1.01 1.07 1.17 1.26 1.35 1.42 1.47 1.46 1.47 1.51 1.56 1.61 1.61 1.56 1.66 1.74
0.67 0.66 0.66 0.69 0.68 0.59 0.74 0.94 0.98 1.05 1.13 1.23 1.25 1.25 1.24 1.19 1.19 1.25 1.26 1.21 1.20 1.16 1.17 1.16 1.06 1.13 1.05 0.99 1.04 1.08 1.18 1.27 1.35 1.46 1.43 1.47 1.51 1.52 1.58 1.61 1.58 1.60 1.76
0.67 0.67 0.66 0.65 0.70 0.69 0.55 0.70 0.83 0.83 0.88 0.96 1.06 1.17 1.26 1.25 1.24 1.21 1.34 1.28 1.22 1.16 1.13 1.16 1.09 1.05 1.03 1.06 0.95 0.99 1.09 1.19 1.28 1.39 1.44 1.44 1.46 1.48 1.50 1.55 1.55 1.63 1.58
0.64 0.68 0.68 0.67 0.68 0.71 0.70 0.60 0.81 0.89 0.88 0.90 1.02 1.06 1.14 1.24 1.23 1.23 1.27 1.31 1.26 1.18 1.14 1.15 1.06 1.00 1.04 1.07 0.87 0.85 0.77 0.92 1.12 1.27 1.32 1.42 1.43 1.48 1.49 1.52 1.50 1.55 1.70
0.57 0.60 0.64 0.67 0.69 0.70 0.72 0.70 0.67 0.86 0.92 0.91 0.89 0.91 0.95 1.03 1.15 1.21 1.21 1.30 1.34 1.23 1.10 1.12 1.09 1.03 0.94 1.03 1.04 0.81 0.73 0.68 0.88 1.07 1.17 1.26 1.40 1.41 1.44 1.51 1.46 1.52 1.59
0.52 0.57 0.59 0.62 0.66 0.70 0.74 0.70 0.67 0.68 0.77 0.81 0.82 0.84 0.87 0.94 1.08 1.20 1.21 1.24 1.38 1.32 1.16 1.13 1.15 1.14 1.07 0.91 1.04 1.00 0.95 0.92 0.75 0.74 0.99 1.09 1.26 1.33 1.37 1.47 1.42 1.46 1.53
0.53 0.53 0.56 0.58 0.60 0.66 0.70 0.72 0.71 0.64 0.79 0.91 0.88 0.89 0.94 0.94 1.02 1.13 1.18 1.22 1.29 1.39 1.31 1.19 1.17 1.20 1.16 1.03 0.93 0.97 0.92 0.89 0.92 0.89 0.75 0.87 1.07 1.21 1.27 1.37 1.32 1.32 1.44
0.52 0.53 0.55 0.56 0.57 0.62 0.67 0.71 0.73 0.72 0.70 0.88 0.87 0.88 0.95 0.97 0.98 1.10 1.17 1.20 1.22 1.36 1.39 1.32 1.29 1.28 1.20 1.10 1.05 1.03 0.91 0.79 0.85 0.84 0.85 0.87 0.95 1.08 1.20 1.19 1.21 1.24 1.39

GFSSE_prec_pwat_111.txt.gz
Precipitable_Water
0.96 1.21 1.06 1.05 1.09 1.15 1.20 1.20 1.20 1.17 1.15 1.19 1.21 1.22 1.27 1.30 1.28 1.21 1.17 1.17 1.17 1.17 1.20 1.27 1.28 1.29 1.25 1.21 1.18 1.23 1.30 1.42 1.56 1.61 1.67 1.72 1.58 1.58 1.56 1.54 1.65 1.76 1.75
1.11 1.24 1.06 1.06 1.05 1.14 1.17 1.17 1.19 1.18 1.17 1.20 1.24 1.25 1.31 1.34 1.29 1.21 1.21 1.20 1.22 1.27 1.29 1.26 1.27 1.29 1.29 1.28 1.29 1.33 1.34 1.43 1.54 1.60 1.70 1.60 1.59 1.60 1.60 1.66 1.71 1.64 1.72
1.07 1.28 1.09 1.08 1.05 1.12 1.13 1.17 1.19 1.20 1.21 1.22 1.26 1.27 1.31 1.35 1.30 1.25 1.21 1.19 1.21 1.28 1.31 1.33 1.35 1.35 1.32 1.36 1.38 1.41 1.40 1.49 1.56 1.63 1.63 1.64 1.64 1.61 1.63 1.69 1.74 1.65 1.68
1.16 1.35 1.13 1.10 1.08 1.09 1.13 1.17 1.17 1.21 1.22 1.22 1.25 1.26 1.30 1.31 1.28 1.23 1.22 1.20 1.28 1.32 1.35 1.32 1.30 1.29 1.32 1.36 1.39 1.41 1.47 1.53 1.58 1.64 1.64 1.65 1.65 1.65 1.58 1.59 1.70 1.64 1.69
1.22 1.35 1.24 1.15 1.10 1.09 1.14 1.17 1.19 1.24 1.21 1.22 1.25 1.25 1.29 1.28 1.27 1.23 1.24 1.22 1.29 1.31 1.29 1.30 1.31 1.32 1.33 1.36 1.40 1.44 1.51 1.52 1.55 1.57 1.61 1.58 1.72 1.57 1.60 1.64 1.63 1.61 1.66
1.26 1.36 1.31 1.19 1.12 1.12 1.15 1.18 1.20 1.22 1.18 1.22 1.26 1.29 1.29 1.28 1.25 1.23 1.26 1.25 1.31 1.33 1.32 1.32 1.32 1.34 1.34 1.35 1.44 1.49 1.50 1.50 1.53 1.52 1.60 1.62 1.66 1.61 1.61 1.56 1.55 1.62 1.70
1.23 1.37 1.37 1.20 1.17 1.16 1.16 1.19 1.22 1.20 1.19 1.25 1.28 1.28 1.28 1.27 1.25 1.23 1.27 1.30 1.33 1.33 1.32 1.34 1.35 1.36 1.33 1.37 1.44 1.49 1.50 1.44 1.39 1.45 1.77 1.53 1.53 1.62 1.55 1.53 1.57 1.65 1.71
1.20 1.30 1.36 1.24 1.20 1.19 1.18 1.20 1.18 1.15 1.16 1.21 1.24 1.26 1.28 1.27 1.23 1.20 1.24 1.30 1.32 1.31 1.31 1.32 1.35 1.37 1.39 1.40 1.44 1.50 1.47 1.37 1.30 1.65 1.54 1.48 1.52 1.56 1.52 1.56 1.59 1.63 1.71
1.29 1.29 1.34 1.27 1.25 1.23 1.20 1.19 1.16 1.12 1.13 1.16 1.19 1.24 1.26 1.29 1.29 1.28 1.28 1.26 1.27 1.28 1.29 1.28 1.34 1.36 1.38 1.38 1.44 1.47 1.45 1.38 1.34 1.41 1.48 1.62 1.51 1.49 1.53 1.58 1.59 1.61 1.70
1.32 1.35 1.34 1.32 1.31 1.30 1.27 1.25 1.20 1.13 1.11 1.14 1.19 1.23 1.27 1.29 1.31 1.32 1.33 1.33 1.33 1.33 1.31 1.30 1.33 1.35 1.34 1.37 1.42 1.45 1.43 1.40 1.35 1.45 1.64 1.46 1.53 1.49 1.55 1.58 1.64 1.61 1.70
1.25 1.34 1.36 1.37 1.39 1.38 1.38 1.35 1.27 1.18 1.15 1.15 1.18 1.20 1.24 1.28 1.34 1.38 1.33 1.32 1.30 1.29 1.30 1.30 1.31 1.30 1.31 1.35 1.42 1.44 1.42 1.41 1.38 1.36 1.54 1.53 1.66 1.54 1.56 1.60 1.68 1.64 1.68
1.21 1.32 1.39 1.36 1.39 1.42 1.42 1.44 1.32 1.26 1.20 1.18 1.19 1.22 1.24 1.27 1.32 1.33 1.34 1.34 1.33 1.31 1.31 1.32 1.31 1.32 1.33 1.36 1.40 1.42 1.40 1.41 1.43 1.40 1.51 1.41 1.68 1.52 1.52 1.64 1.73 1.74 1.68
1.20 1.38 1.44 1.42 1.43 1.43 1.37 1.45 1.39 1.35 1.29 1.27 1.28 1.28 1.24 1.26 1.33 1.33 1.36 1.32 1.38 1.34 1.30 1.29 1.29 1.29 1.29 1.33 1.40 1.38 1.41 1.42 1.40 1.69 1.58 1.56 1.60 1.52 1.53 1.60 1.76 1.76 1.70
1.01 1.41 1.45 1.52 1.48 1.46 1.42 1.43 1.39 1.34 1.31 1.28 1.28 1.31 1.30 1.24 1.23 1.31 1.26 1.32 1.32 1.35 1.29 1.28 1.22 1.24 1.29 1.34 1.36 1.33 1.45 1.50 1.57 1.54 1.60 1.57 1.57 1.55 1.53 1.59 1.68 1.77 1.74
0.56 1.13 1.51 1.57 1.52 1.53 1.45 1.44 1.40 1.36 1.34 1.24 1.31 1.34 1.29 1.27 1.24 1.26 1.26 1.29 1.37 1.30 1.30 1.25 1.27 1.27 1.26 1.31 1.32 1.35 1.45 1.49 1.56 1.54 1.58 1.61 1.53 1.54 1.57 1.54 1.66 1.69 1.77
0.56 0.57 0.78 1.43 1.58 1.57 1.38 1.35 1.36 1.34 1.36 1.34 1.27 1.26 1.31 1.28 1.30 1.26 1.25 1.25 1.30 1.34 1.32 1.28 1.23 1.25 1.26 1.31 1.31 1.36 1.40 1.47 1.51 1.53 1.53 1.53 1.52 1.54 1.54 1.56 1.62 1.60 1.82
0.56 0.57 0.60 0.84 1.36 1.48 1.46 1.33 1.34 1.32 1.29 1.30 1.27 1.29 1.35 1.29 1.31 1.25 1.18 1.22 1.25 1.30 1.34 1.33 1.26 1.29 1.26 1.26 1.22 1.27 1.36 1.39 1.40 1.42 1.47 1.53 1.55 1.50 1.54 1.53 1.59 1.55 1.50
0.67 0.73 0.73 0.69 0.77 1.12 1.37 1.29 1.40 1.38 1.31 1.30 1.31 1.38 1.36 1.36 1.32 1.33 1.25 1.15 1.26 1.25 1.30 1.26 1.25 1.19 1.20 1.18 1.15 1.16 1.20 1.27 1.32 1.38 1.46 1.47 1.54 1.51 1.48 1.54 1.51 1.49 1.52
0.70 0.77 0.79 0.83 0.79 0.78 0.84 1.11 1.34 1.41 1.47 1.41 1.40 1.39 1.42 1.35 1.39 1.34 1.33 1.26 1.24 1.17 1.21 1.25 1.23 1.23 1.16 1.12 1.15 1.11 1.13 1.15 1.23 1.30 1.44 1.47 1.50 1.49 1.47 1.54 1.55 1.53 1.56
0.71 0.73 0.77 0.80 0.84 0.88 0.82 0.81 1.11 1.25 1.29 1.40 1.41 1.41 1.39 1.38 1.38 1.37 1.34 1.34 1.34 1.20 1.14 1.21 1.19 1.24 1.19 1.11 1.10 1.07 1.05 1.12 1.15 1.25 1.35 1.42 1.50 1.47 1.51 1.55 1.54 1.60 1.55
0.71 0.71 0.72 0.72 0.75 0.79 0.78 0.74 0.67 0.97 1.15 1.24 1.30 1.37 1.41 1.40 1.39 1.31 1.26 1.22 1.25 1.24 1.15 1.15 1.19 1.14 1.15 1.19 1.08 1.03 1.02 1.03 1.05 1.15 1.29 1.39 1.45 1.45 1.50 1.51 1.48 1.56 1.61
0.63 0.65 0.66 0.69 0.72 0.74 0.74 0.78 0.80 0.75 0.92 1.03 1.15 1.21 1.28 1.35 1.35 1.32 1.23 1.15 1.21 1.19 1.25 1.15 1.14 1.10 1.15 1.21 0.95 0.93 0.77 0.84 0.87 1.03 1.11 1.24 1.33 1.41 1.49 1.50 1.47 1.48 1.56
0.55 0.57 0.59 0.61 0.64 0.68 0.71 0.73 0.76 0.76 0.74 0.89 1.01 1.00 1.06 1.18 1.20 1.17 1.25 1.24 1.24 1.21 1.21 1.21 1.17 1.11 1.04 1.17 1.10 0.91 0.75 0.65 0.71 0.83 0.96 1.11 1.22 1.28 1.44 1.50 1.46 1.48 1.50
0.53 0.57 0.57 0.58 0.59 0.60 0.66 0.65 0.65 0.64 0.64 0.65 0.85 0.98 0.99 1.07 1.12 1.13 1.11 1.14 1.27 1.22 1.19 1.25 1.29 1.20 1.15 1.00 1.12 1.08 1.01 0.94 0.72 0.61 0.81 0.96 1.13 1.16 1.26 1.43 1.39 1.49 1.50
0.51 0.53 0.55 0.56 0.55 0.56 0.59 0.62 0.62 0.63 0.66 0.72 0.73 0.96 1.00 1.03 1.06 1.03 1.10 1.10 1.14 1.23 1.22 1.19 1.32 1.23 1.17 1.11 1.07 1.03 1.01 0.97 0.93 0.77 0.61 0.80 1.01 1.10 1.16 1.35 1.41 1.38 1.51
0.50 0.51 0.52 0.52 0.52 0.55 0.57 0.58 0.59 0.58 0.63 0.67 0.70 0.78 1.08 1.01 1.04 1.01 1.06 1.10 1.11 1.18 1.18 1.20 1.25 1.31 1.16 1.15 1.17 1.11 1.01 0.88 0.84 0.85 0.69 0.72 0.79 0.96 1.09 1.20 1.29 1.31 1.38

GFSSE_prec_pwat_114.txt.gz
Precipitable_Water
1.24 1.13 1.07 0.98 0.97 1.04 1.11 1.13 1.15 1.17 1.19 1.13 1.14 1.15 1.17 1.28 1.27 1.15 1.06 1.04 1.10 1.17 1.21 1.24 1.30 1.27 1.22 1.26 1.20 1.19 1.22 1.30 1.43 1.55 1.60 1.63 1.55 1.54 1.53 1.57 1.68 1.62 1.61
1.30 1.20 1.07 1.02 0.99 1.05 1.13 1.14 1.16 1.16 1.14 1.13 1.14 1.16 1.19 1.28 1.28 1.19 1.12 1.07 1.10 1.15 1.21 1.26 1.24 1.24 1.21 1.17 1.15 1.18 1.21 1.28 1.40 1.49 1.57 1.52 1.52 1.53 1.50 1.63 1.79 1.62 1.69
1.19 1.14 1.12 1.05 1.05 1.09 1.14 1.14 1.16 1.14 1.13 1.15 1.18 1.19 1.22 1.27 1.26 1.19 1.17 1.15 1.18 1.23 1.25 1.23 1.24 1.26 1.26 1.25 1.28 1.31 1.31 1.32 1.41 1.48 1.54 1.48 1.56 1.58 1.60 1.61 1.66 1.65 1.71
1.26 1.21 1.16 1.09 1.10 1.09 1.13 1.14 1.14 1.14 1.15 1.17 1.20 1.21 1.26 1.32 1.27 1.19 1.16 1.16 1.19 1.26 1.30 1.33 1.34 1.33 1.30 1.34 1.32 1.34 1.35 1.42 1.46 1.53 1.61 1.70 1.60 1.52 1.60 1.62 1.63 1.64 1.70
1.23 1.30 1.25 1.13 1.13 1.12 1.12 1.14 1.15 1.16 1.17 1.18 1.21 1.21 1.23 1.29 1.27 1.22 1.16 1.16 1.23 1.33 1.36 1.33 1.30 1.31 1.33 1.33 1.34 1.35 1.40 1.46 1.46 1.55 1.63 1.75 1.73 1.53 1.55 1.53 1.57 1.58 1.64
1.24 1.31 1.28 1.19 1.17 1.17 1.15 1.17 1.17 1.18 1.16 1.14 1.18 1.21 1.22 1.25 1.26 1.20 1.17 1.17 1.25 1.31 1.33 1.31 1.31 1.30 1.32 1.33 1.33 1.39 1.46 1.47 1.49 1.54 1.56 1.65 1.71 1.64 1.49 1.54 1.56 1.55 1.60
1.23 1.35 1.38 1.23 1.19 1.17 1.17 1.20 1.20 1.22 1.16 1.15 1.18 1.21 1.23 1.25 1.25 1.24 1.23 1.21 1.24 1.29 1.30 1.32 1.32 1.32 1.28 1.29 1.33 1.41 1.45 1.44 1.50 1.52 1.64 1.96 1.82 1.59 1.52 1.54 1.52 1.53 1.61
1.27 1.39 1.43 1.31 1.21 1.16 1.19 1.20 1.23 1.22 1.16 1.17 1.19 1.21 1.21 1.23 1.24 1.22 1.22 1.26 1.31 1.34 1.33 1.32 1.32 1.33 1.31 1.31 1.36 1.40 1.43 1.41 1.40 1.35 1.42 1.59 1.73 1.51 1.50 1.50 1.53 1.55 1.62
1.29 1.40 1.44 1.37 1.25 1.20 1.19 1.21 1.23 1.23 1.18 1.18 1.20 1.21 1.21 1.22 1.22 1.22 1.22 1.25 1.28 1.33 1.36 1.34 1.34 1.34 1.34 1.33 1.35 1.38 1.40 1.38 1.29 1.34 1.59 1.83 1.69 1.60 1.51 1.45 1.53 1.56 1.61
1.22 1.36 1.42 1.36 1.26 1.22 1.21 1.21 1.21 1.22 1.16 1.16 1.18 1.19 1.21 1.23 1.25 1.24 1.24 1.26 1.29 1.33 1.32 1.30 1.31 1.34 1.35 1.34 1.33 1.34 1.36 1.32 1.25 1.27 1.45 1.61 1.75 1.58 1.49 1.47 1.55 1.59 1.62
1.16 1.32 1.46 1.40 1.27 1.25 1.24 1.22 1.23 1.25 1.19 1.14 1.16 1.19 1.22 1.24 1.24 1.25 1.24 1.26 1.27 1.26 1.27 1.30 1.30 1.29 1.32 1.31 1.31 1.32 1.34 1.30 1.25 1.23 1.44 1.59 1.69 1.67 1.60 1.57 1.58 1.62 1.64
1.15 1.24 1.44 1.54 1.37 1.34 1.33 1.31 1.25 1.27 1.23 1.18 1.18 1.18 1.20 1.24 1.28 1.28 1.28 1.28 1.28 1.25 1.24 1.27 1.28 1.29 1.30 1.28 1.30 1.32 1.32 1.30 1.30 1.35 1.54 1.56 1.62 1.44 1.56 1.55 1.56 1.62 1.72
0.70 1.35 1.44 1.46 1.50 1.45 1.46 1.44 1.35 1.33 1.27 1.19 1.18 1.19 1.19 1.22 1.30 1.30 1.30 1.26 1.26 1.25 1.24 1.24 1.23 1.25 1.25 1.25 1.29 1.34 1.35 1.30 1.33 1.50 1.54 1.46 1.57 1.57 1.53 1.55 1.54 1.61 1.69
0.61 1.23 1.61 1.52 1.51 1.44 1.49 1.59 1.53 1.40 1.38 1.27 1.23 1.22 1.20 1.18 1.17 1.25 1.24 1.27 1.28 1.27 1.21 1.25 1.21 1.19 1.20 1.26 1.30 1.36 1.33 1.36 1.42 1.53 1.56 1.63 1.57 1.56 1.62 1.54 1.50 1.57 1.66
0.57 0.84 1.36 1.81 1.50 1.56 1.57 1.54 1.60 1.48 1.45 1.38 1.35 1.29 1.24 1.21 1.20 1.20 1.23 1.31 1.30 1.28 1.19 1.15 1.22 1.22 1.21 1.20 1.28 1.32 1.29 1.33 1.42 1.52 1.61 1.56 1.51 1.51 1.56 1.56 1.52 1.55 1.63
0.60 0.63 0.87 1.23 1.73 1.76 1.66 1.66 1.62 1.61 1.51 1.45 1.42 1.45 1.35 1.28 1.20 1.26 1.23 1.28 1.34 1.38 1.32 1.19 1.12 1.13 1.21 1.24 1.20 1.30 1.31 1.40 1.43 1.48 1.48 1.51 1.49 1.43 1.45 1.50 1.52 1.50 1.57
0.61 0.67 0.70 0.75 0.99 1.57 1.69 1.67 1.72 1.64 1.53 1.53 1.46 1.40 1.39 1.35 1.26 1.29 1.26 1.22 1.25 1.43 1.38 1.26 1.19 1.26 1.16 1.23 1.22 1.22 1.25 1.33 1.35 1.40 1.45 1.43 1.42 1.44 1.41 1.47 1.39 1.44 1.48
0.68 0.76 0.80 0.78 0.80 1.07 1.24 1.60 1.57 1.60 1.59 1.48 1.51 1.45 1.31 1.30 1.29 1.33 1.26 1.26 1.30 1.32 1.40 1.29 1.20 1.13 1.16 1.21 1.17 1.21 1.18 1.23 1.26 1.28 1.32 1.35 1.33 1.38 1.37 1.41 1.41 1.38 1.47
0.75 0.80 0.82 0.86 0.84 0.81 0.96 1.12 1.29 1.42 1.50 1.53 1.44 1.46 1.40 1.34 1.43 1.41 1.33 1.25 1.27 1.31 1.33 1.26 1.22 1.12 1.13 1.16 1.17 1.19 1.18 1.16 1.15 1.17 1.21 1.27 1.29 1.37 1.40 1.39 1.35 1.40 1.47
0.77 0.79 0.82 0.82 0.85 0.86 0.84 0.84 0.92 1.04 1.31 1.48 1.54 1.51 1.48 1.45 1.48 1.53 1.45 1.38 1.31 1.27 1.23 1.28 1.22 1.21 1.16 1.13 1.17 1.18 1.16 1.16 1.14 1.10 1.16 1.22 1.26 1.36 1.41 1.40 1.39 1.42 1.44
0.76 0.76 0.76 0.74 0.78 0.78 0.76 0.74 0.78 0.75 0.94 1.26 1.46 1.52 1.60 1.60 1.54 1.49 1.51 1.47 1.33 1.24 1.16 1.25 1.25 1.19 1.16 1.19 1.11 1.13 1.16 1.18 1.14 1.13 1.10 1.13 1.14 1.19 1.37 1.36 1.41 1.44 1.43
0.65 0.67 0.67 0.67 0.69 0.72 0.75 0.77 0.76 0.77 0.80 0.92 1.09 1.28 1.37 1.44 1.62 1.55 1.47 1.45 1.45 1.26 1.16 1.18 1.26 1.15 1.14 1.22 1.05 1.02 0.88 0.98 1.06 1.05 1.07 1.03 1.06 1.11 1.15 1.33 1.34 1.44 1.44
0.61 0.60 0.60 0.62 0.64 0.64 0.65 0.69 0.73 0.76 0.74 0.72 0.84 0.95 1.19 1.37 1.49 1.48 1.54 1.45 1.49 1.40 1.25 1.14 1.18 1.16 1.03 1.13 1.20 1.00 0.82 0.70 0.84 1.00 1.04 1.02 1.01 1.02 1.11 1.21 1.32 1.43 1.40
0.55 0.56 0.56 0.58 0.58 0.59 0.60 0.58 0.57 0.56 0.57 0.68 0.71 0.84 1.02 1.22 1.13 1.27 1.41 1.38 1.35 1.29 1.31 1.26 1.22 1.15 1.14 1.06 1.18 1.16 1.05 0.95 0.75 0.75 1.01 1.05 1.04 1.00 1.05 1.13 1.22 1.37 1.39
0.52 0.52 0.55 0.55 0.54 0.55 0.56 0.56 0.54 0.52 0.55 0.57 0.61 0.65 0.72 0.93 1.09 1.20 1.20 1.25 1.33 1.27 1.21 1.18 1.24 1.22 1.15 1.10 1.10 1.06 1.07 1.05 1.02 0.87 0.79 0.89 1.07 1.01 1.02 1.12 1.14 1.25 1.39
0.51 0.52 0.52 0.51 0.51 0.53 0.53 0.53 0.53 0.51 0.51 0.51 0.54 0.54 0.61 0.67 0.89 1.09 1.25 1.21 1.18 1.18 1.24 1.24 1.17 1.22 1.19 1.15 1.15 1.18 1.04 0.97 0.94 0.93 0.84 0.87 0.89 0.95 0.98 1.07 1.13 1.22 1.31

GFSSE_prec_pwat_117.txt.gz
Precipitable_Water
1.26 1.31 1.18 1.02 1.01 1.04 1.04 1.06 1.08 1.11 1.14 1.08 1.07 1.07 1.15 1.17 1.17 1.10 1.09 1.05 1.12 1.16 1.19 1.21 1.25 1.28 1.31 1.33 1.30 1.26 1.31 1.37 1.37 1.48 1.54 1.64 1.58 1.57 1.56 1.58 1.57 1.62 1.65
1.32 1.36 1.20 1.05 0.99 1.04 1.06 1.10 1.09 1.11 1.12 1.06 1.06 1.07 1.15 1.21 1.18 1.09 1.05 1.04 1.10 1.14 1.17 1.22 1.23 1.25 1.25 1.27 1.24 1.20 1.25 1.28 1.40 1.49 1.54 1.51 1.47 1.52 1.58 1.63 1.63 1.66 1.68
1.25 1.28 1.26 1.07 0.99 1.04 1.09 1.10 1.10 1.11 1.10 1.08 1.07 1.07 1.11 1.22 1.21 1.12 1.07 1.03 1.09 1.14 1.18 1.20 1.21 1.23 1.24 1.21 1.19 1.20 1.28 1.38 1.46 1.53 1.56 1.43 1.48 1.52 1.62 1.69 1.66 1.62 1.68
1.35 1.28 1.25 1.13 1.03 1.05 1.11 1.11 1.10 1.09 1.07 1.07 1.08 1.08 1.12 1.19 1.20 1.12 1.10 1.07 1.11 1.18 1.22 1.23 1.24 1.28 1.30 1.29 1.32 1.34 1.37 1.43 1.52 1.55 1.63 1.52 1.55 1.61 1.64 1.67 1.67 1.63 1.69
1.22 1.28 1.23 1.17 1.10 1.09 1.12 1.12 1.11 1.11 1.10 1.09 1.09 1.08 1.10 1.15 1.15 1.12 1.10 1.09 1.10 1.18 1.23 1.25 1.26 1.26 1.27 1.27 1.29 1.33 1.39 1.50 1.52 1.56 1.70 1.83 1.88 1.71 1.62 1.63 1.59 1.59 1.64
1.14 1.29 1.33 1.23 1.13 1.13 1.14 1.13 1.14 1.14 1.14 1.11 1.09 1.10 1.11 1.16 1.16 1.12 1.09 1.11 1.15 1.23 1.26 1.23 1.21 1.22 1.25 1.25 1.27 1.32 1.42 1.51 1.52 1.57 1.57 1.69 1.82 1.83 1.68 1.57 1.58 1.58 1.61
1.19 1.34 1.37 1.24 1.16 1.14 1.14 1.16 1.17 1.15 1.13 1.12 1.11 1.11 1.10 1.14 1.16 1.12 1.10 1.11 1.17 1.24 1.25 1.25 1.27 1.26 1.24 1.26 1.28 1.35 1.46 1.49 1.51 1.47 1.52 1.61 1.64 1.77 1.79 1.60 1.57 1.57 1.61
1.11 1.31 1.39 1.39 1.22 1.18 1.17 1.16 1.19 1.18 1.17 1.13 1.12 1.15 1.12 1.14 1.16 1.15 1.11 1.13 1.17 1.22 1.25 1.26 1.28 1.26 1.25 1.26 1.29 1.37 1.45 1.47 1.50 1.41 1.37 1.48 1.45 1.69 1.74 1.67 1.53 1.55 1.58
1.15 1.27 1.33 1.43 1.34 1.26 1.20 1.18 1.20 1.20 1.19 1.14 1.15 1.17 1.18 1.17 1.18 1.17 1.15 1.16 1.17 1.21 1.24 1.25 1.25 1.28 1.27 1.26 1.28 1.34 1.41 1.43 1.42 1.37 1.40 1.47 1.49 1.76 1.70 1.54 1.53 1.56 1.61
1.09 1.20 1.26 1.39 1.42 1.31 1.26 1.23 1.23 1.23 1.23 1.18 1.16 1.19 1.21 1.22 1.21 1.22 1.20 1.19 1.20 1.23 1.25 1.26 1.27 1.24 1.25 1.26 1.26 1.28 1.33 1.38 1.39 1.37 1.41 1.45 1.59 1.61 1.61 1.55 1.55 1.57 1.62
1.08 1.24 1.27 1.29 1.40 1.35 1.25 1.25 1.26 1.26 1.27 1.24 1.21 1.20 1.20 1.22 1.22 1.21 1.20 1.21 1.23 1.24 1.25 1.24 1.24 1.25 1.22 1.23 1.24 1.24 1.28 1.34 1.37 1.33 1.38 1.42 1.50 1.56 1.58 1.61 1.57 1.59 1.61
0.97 1.20 1.28 1.30 1.38 1.32 1.27 1.25 1.27 1.28 1.26 1.26 1.22 1.19 1.17 1.17 1.18 1.19 1.18 1.20 1.23 1.24 1.22 1.23 1.24 1.21 1.22 1.21 1.19 1.19 1.23 1.32 1.37 1.30 1.36 1.44 1.48 1.47 1.53 1.50 1.56 1.56 1.57
0.69 1.10 1.30 1.38 1.48 1.40 1.30 1.28 1.28 1.31 1.29 1.30 1.24 1.22 1.19 1.15 1.17 1.17 1.17 1.19 1.23 1.26 1.23 1.24 1.22 1.19 1.14 1.16 1.14 1.17 1.23 1.30 1.36 1.36 1.39 1.48 1.49 1.40 1.53 1.58 1.55 1.51 1.54
0.60 0.97 1.28 1.44 1.53 1.51 1.54 1.43 1.41 1.34 1.35 1.29 1.28 1.25 1.20 1.13 1.13 1.15 1.15 1.16 1.18 1.21 1.19 1.17 1.17 1.17 1.15 1.12 1.13 1.14 1.23 1.32 1.36 1.36 1.43 1.54 1.45 1.54 1.52 1.48 1.48 1.50 1.55
0.55 0.93 1.18 1.36 1.46 1.60 1.60 1.66 1.55 1.47 1.43 1.38 1.36 1.32 1.28 1.17 1.10 1.15 1.16 1.18 1.16 1.20 1.21 1.18 1.15 1.14 1.13 1.11 1.11 1.15 1.16 1.27 1.35 1.37 1.42 1.50 1.55 1.46 1.46 1.48 1.45 1.50 1.47
0.60 0.88 1.07 1.38 1.49 1.58 1.74 1.66 1.73 1.71 1.59 1.59 1.52 1.44 1.38 1.29 1.20 1.16 1.17 1.17 1.19 1.20 1.25 1.27 1.19 1.15 1.13 1.09 1.10 1.12 1.17 1.24 1.33 1.38 1.40 1.47 1.42 1.40 1.39 1.39 1.42 1.45 1.46
0.67 0.72 0.79 0.93 1.04 1.14 1.48 1.77 1.64 1.82 1.80 1.75 1.73 1.69 1.53 1.39 1.29 1.25 1.26 1.21 1.18 1.24 1.27 1.32 1.30 1.25 1.17 1.15 1.11 1.13 1.16 1.22 1.23 1.29 1.32 1.37 1.41 1.39 1.30 1.32 1.38 1.42 1.45
0.66 0.71 0.77 0.85 0.89 0.95 1.09 1.21 1.29 1.42 1.75 1.79 1.85 1.62 1.68 1.56 1.42 1.33 1.27 1.29 1.30 1.33 1.29 1.29 1.30 1.21 1.16 1.11 1.08 1.13 1.14 1.19 1.18 1.21 1.24 1.21 1.25 1.30 1.26 1.30 1.37 1.40 1.42
0.66 0.68 0.73 0.76 0.78 0.83 0.88 1.09 1.15 1.30 1.45 1.64 1.79 1.73 1.71 1.59 1.51 1.38 1.34 1.34 1.38 1.37 1.28 1.25 1.28 1.23 1.14 1.10 1.10 1.18 1.18 1.16 1.17 1.17 1.15 1.11 1.13 1.19 1.23 1.25 1.35 1.41 1.40
0.67 0.70 0.70 0.69 0.69 0.73 0.75 0.79 0.96 1.02 1.05 1.20 1.44 1.70 1.70 1.70 1.54 1.45 1.39 1.37 1.46 1.45 1.40 1.30 1.23 1.25 1.15 1.15 1.12 1.15 1.19 1.19 1.19 1.18 1.13 1.11 1.07 1.11 1.16 1.22 1.31 1.33 1.32
0.65 0.66 0.66 0.65 0.65 0.66 0.67 0.64 0.64 0.74 0.93 0.99 1.03 1.24 1.43 1.62 1.68 1.53 1.45 1.49 1.49 1.46 1.38 1.42 1.31 1.23 1.15 1.21 1.15 1.11 1.14 1.21 1.16 1.18 1.16 1.12 1.08 1.06 1.11 1.15 1.18 1.23 1.28
0.64 0.66 0.64 0.64 0.64 0.65 0.65 0.69 0.71 0.68 0.69 0.74 0.84 0.99 1.14 1.32 1.49 1.67 1.63 1.49 1.49 1.47 1.51 1.43 1.39 1.26 1.25 1.24 1.07 1.04 0.86 1.00 1.10 1.18 1.20 1.13 1.06 1.07 1.04 1.08 1.13 1.18 1.25
0.64 0.65 0.62 0.60 0.59 0.61 0.61 0.61 0.61 0.64 0.68 0.67 0.66 0.78 0.93 1.01 1.10 1.33 1.46 1.41 1.54 1.60 1.54 1.53 1.41 1.32 1.18 1.24 1.23 1.03 0.86 0.73 0.85 1.07 1.11 1.12 1.07 1.05 1.05 1.04 1.08 1.12 1.20
0.64 0.62 0.56 0.54 0.56 0.57 0.57 0.53 0.52 0.50 0.49 0.56 0.60 0.65 0.68 0.86 0.95 1.08 1.17 1.34 1.37 1.38 1.52 1.48 1.45 1.45 1.36 1.14 1.22 1.20 1.07 0.95 0.75 0.69 0.95 1.02 1.10 1.07 1.07 1.06 1.03 1.09 1.19
0.60 0.56 0.50 0.50 0.51 0.51 0.51 0.50 0.48 0.46 0.48 0.49 0.51 0.52 0.56 0.62 0.74 0.92 1.01 1.10 1.18 1.28 1.28 1.37 1.46 1.40 1.34 1.26 1.18 1.10 1.09 1.04 1.00 0.85 0.71 0.84 1.06 1.10 1.12 1.09 1.05 1.06 1.16
0.58 0.52 0.45 0.45 0.45 0.45 0.46 0.46 0.46 0.45 0.46 0.46 0.45 0.45 0.47 0.50 0.53 0.61 0.84 0.94 1.07 1.14 1.20 1.24 1.25 1.32 1.29 1.21 1.26 1.23 1.10 0.97 0.92 0.94 0.87 0.86 0.89 1.02 1.12 1.11 1.09 1.03 1.15